Regional Weather Roundup
Issued by NWS

Home | Current Version | Previous Version | Text Only | Print | Product List | Glossary On
Versions: 1 2 3 4 5 6 7 8 9 10 11 12 13 14 15 16 17 18 19 20 21 22 23 24 25 26 27
000
ASUS42 KFFC 300703
RWRGA
WEATHER ROUNDUP FOR GEORGIA
NATIONAL WEATHER SERVICE PEACHTREE CITY GA
300 AM EDT SAT APR 30 2016

NOTE: "FAIR" INDICATES FEW OR NO CLOUDS BELOW 12,000 FEET WITH NO
SIGNIFICANT WEATHER AND/OR OBSTRUCTIONS TO VISIBILITY.

* = USE WITH CAUTION. THE STATIONS MARKED WITH AN ASTERISK MAY NOT
REPORT WEATHER SUCH AS PRECIPITATION, FOG, OR THUNDER AND ARE NOT
QUALITY CONTROLLED BY NWS.

THE REMARK "TC" DENOTES TEMPERATURE READING IN DEGREES CELSIUS.

GAZ001>058-300800-
NORTH GEORGIA

CITY           SKY/WX    TMP DP  RH WIND       PRES   REMARKS
ATLANTA        CLOUDY    70  55  59 SE5       29.93F
ATHENS         PTCLDY    64  59  83 CALM      29.95F
CHAMBLEE       CLOUDY    66  57  72 CALM      29.94F
PEACHTREE CITY CLOUDY    65  60  84 CALM      29.93F
ROME           MOCLDY    64  60  87 N6        29.91F
WEST ATLANTA   CLOUDY    70  55  59 CALM      29.92F
GAINESVILLE    CLOUDY    69  51  52 CALM      29.97F
CARTERSVILLE   CLOUDY    66  58  75 E3        29.91F


CITY           SKY/WX    TMP DP  RH WIND       PRES   REMARKS
DALTON*        CLOUDY    61  61 100 CALM      29.94F
MARIETTA       CLOUDY    68  56  65 CALM      29.93F
CANTON*        CLOUDY    66  50  55 CALM      29.96F
BLAIRSVILLE*     N/A    N/A N/A N/A MISG      30.00S
$$

GAZ059>098-102>109-300800-
CENTRAL GEORGIA

CITY           SKY/WX    TMP DP  RH WIND       PRES   REMARKS
AUGUSTA-BUSH   CLEAR     64  62  93 CALM      29.95F
AUGUSTA-DANIEL CLEAR     70  61  73 SE6       29.97F
COLUMBUS       CLOUDY    69  59  70 SE7       29.90F
MACON          MOCLDY    65  63  93 CALM      29.93F
ROBINS AFB     MOCLDY    66  66  99 CALM      29.92F


CITY           SKY/WX    TMP DP  RH WIND       PRES   REMARKS
LAGRANGE*      CLOUDY    71  62  72 N3        29.90F
SYLVANIA*      CLEAR     65  65  97 CALM      29.98F
MILLEDGEVILLE* MOCLDY    64  63  94 CALM      29.94F
$$

GAZ099>101-110>166-300800-
SOUTH GEORGIA

CITY           SKY/WX    TMP DP  RH WIND       PRES   REMARKS
SAVANNAH       CLEAR     69  66  90 CALM      29.97S FOG
VALDOSTA       CLEAR     69  68  96 CALM      29.94F
ALMA           CLEAR     66  65  96 CALM      29.95F
ST SIMONS      MOCLDY    72  72 100 S6        29.96F
FT STEWART     CLOUDY    65  63  94 CALM      29.94F
ALBANY         PTCLDY    73  68  84 CALM      29.94F
HUNTER AFB     CLEAR     70  70 100 CALM      29.94S FOG
MOODY AFB      CLEAR     70  67  91 CALM      29.93F
BRUNSWICK      PTCLDY    73  72  94 S3        29.96F FOG


CITY           SKY/WX    TMP DP  RH WIND       PRES   REMARKS
BAINBRIDGE*    CLEAR     72  70  94 CALM      29.93F
MOULTRIE*      PTCLDY    72  68  88 CALM      29.95F
VIDALIA*       CLEAR     68  63  83 CALM      29.96F
WAYCROSS*      CLEAR     68  68 100 CALM      29.95F
DOUGLAS*       PTCLDY    73  70  88 CALM      29.96F
$$




USA.gov is the U.S. government's official web portal to all federal, state and local government web resources and services.